RADUGA 24 [-]

Last updated on Tue Jun 27 2023 00:03:02 GMT+0000 (Coordinated Universal Time)

1 20367U 89098A 23177.04637111 .00000027 00000+0 00000+0 0 9992 2 20367 13.6777 341.8491 0003000 152.7964 215.2856 1.00329158122135

Satellite not in orbit

RADUGA 24 [-]